Location: Linz
(48.3300°N, 14.3000°E)
Time: 14:12:58
(UTC+01:00)

N. Korean satellite - Visible Passes

Search period start: 21 February 2018 00:00
Search period end: 03 March 2018 00:00
Orbit: 459 x 514 km, 97.2° (Epoch: 21 February)

Date Brightness Start Highest point End Pass type
(mag) Time Alt. Az. Time Alt. Az. Time Alt. Az.
21 Feb 8.6 06:19:01 10° NNE 06:22:24 34° E 06:25:48 10° SSE visible
21 Feb 9.1 18:32:30 10° SSW 18:35:27 26° W 18:38:28 10° NW visible
22 Feb 9.8 05:55:47 10° NE 05:58:31 19° E 06:01:16 10° SE visible
22 Feb 7.6 18:08:14 10° S 18:11:36 50° W 18:15:02 10° NNW visible
23 Feb 10.6 05:33:32 10° ENE 05:34:34 11° E 05:35:36 10° ESE visible
24 Feb 10.0 18:55:47 10° SW 18:57:52 15° W 18:59:59 10° NW visible
25 Feb 8.7 06:17:31 10° NNE 06:20:55 34° E 06:24:20 10° SSE visible
25 Feb 9.0 18:30:55 10° SSW 18:33:56 27° W 18:36:59 10° NW visible
26 Feb 9.9 05:54:18 10° NE 05:57:01 19° E 05:59:45 10° SE visible
26 Feb 7.5 18:06:40 10° S 18:10:04 52° W 18:13:33 10° NNW visible
27 Feb 10.7 05:32:06 10° ENE 05:33:02 11° E 05:33:58 10° ESE visible
28 Feb 10.0 18:54:06 10° SW 18:56:18 16° W 18:58:31 10° NW visible
01 Mar 9.0 18:29:17 10° SSW 18:32:20 28° W 18:35:29 10° NW visible
02 Mar 10.0 05:52:46 10° NE 05:55:28 19° E 05:58:10 10° SE visible
